DW9572 Weather Reports


Display with metric or nautical units.
time (UTC)temp
F
wind
direction
speed
MPH
gust
MPH
rain 1hr
in
rain 24hr
in
rain mn
in
humidity
%
barometer
mb
20260904183108 65 94 5.0 9.0 0.00 0.00 0.00 50 1013.6
20260904181533 65 70 8.0 14.0 0.00 0.00 0.00 52 1013.3
20260904180030 64 53 4.0 11.0 0.00 0.00 0.00 52 1013.4
20260904174510 63 49 9.0 11.0 0.00 0.00 0.00 54 1013.3
20260904173011 62 20 6.0 11.0 0.00 0.00 0.00 58 1013.3
20260904171552 61 63 5.0 9.0 0.00 0.00 0.00 60 1013.4
20260904170048 60 98 4.0 9.0 0.00 0.00 0.00 61 1013.5
20260904164522 59 23 4.0 11.0 0.00 0.00 0.00 64 1013.5
20260904163020 59 50 4.0 10.0 0.00 0.00 0.00 63 1013.3
20260904161507 59 16 4.0 8.0 0.00 0.00 0.00 63 1013.3
20260904160004 58 92 5.0 8.0 0.00 0.00 0.00 61 1013.1
20260904154602 58 45 3.0 9.0 0.00 0.00 0.00 63 1013.1
20260904153101 56 25 4.0 5.0 0.00 0.00 0.00 69 1013.1
20260904151556 53 97 4.0 4.0 0.00 0.00 0.00 70 1013.0
20260904150056 54 38 2.0 3.0 0.00 0.00 0.00 71 1012.9
20260904144557 54 4 2.0 5.0 0.00 0.00 0.00 71 1012.7
20260904143045 53 30 2.0 4.0 0.00 0.00 0.00 73 1012.5
20260904141531 52 1 0.0 1.0 0.00 0.00 0.00 74 1012.3
20260904140036 51 3 3.0 6.0 0.00 0.00 0.00 77 1012.0
20260904134557 50 349 6.0 7.0 0.00 0.00 0.00 77 1011.7
20260904133052 51 347 6.0 7.0 0.00 0.00 0.00 77 1011.7
20260904131531 51 352 4.0 4.0 0.00 0.00 0.00 77 1011.6
20260904130030 49 338 0.0 2.0 0.00 0.00 0.00 76 1011.4
20260904124510 49 311 1.0 2.0 0.00 0.00 0.00 76 1011.1
20260904123009 49 308 1.0 5.0 0.00 0.00 0.00 77 1011.1
20260904121549 49 293 4.0 5.0 0.00 0.00 0.00 77 1011.0
20260904120053 50 284 1.0 3.0 0.00 0.00 0.00 73 1010.8
20260904114536 50 263 1.0 3.0 0.00 0.00 0.00 73 1010.7
20260904113031 50 330 1.0 2.0 0.00 0.00 0.00 74 1010.6
20260904111505 51 327 0.0 1.0 0.00 0.00 0.00 72 1010.4
20260904110005 52 328 1.0 2.0 0.00 0.00 0.00 70 1010.3
20260904104547 53 324 2.0 3.0 0.00 0.00 0.00 68 1010.3
20260904103046 52 316 1.0 4.0 0.00 0.00 0.00 69 1010.2
20260904101529 52 305 2.0 3.0 0.00 0.00 0.00 72 1009.9
20260904100029 52 35 0.0 2.0 0.00 0.00 0.00 74 1009.7
20260904094508 53 79 5.0 7.0 0.00 0.00 0.00 61 1009.5
20260904093003 56 328 0.0 5.0 0.00 0.00 0.00 56 1009.2
20260904091546 57 320 2.0 5.0 0.00 0.00 0.00 57 1009.1
20260904090046 57 315 2.0 5.0 0.00 0.00 0.00 59 1009.1
20260904084527 57 287 3.0 5.0 0.00 0.00 0.00 58 1009.3
20260904083029 57 304 4.0 5.0 0.00 0.00 0.00 57 1009.2
20260904081508 58 271 5.0 6.0 0.00 0.00 0.00 59 1009.1
20260904080008 57 281 3.0 5.0 0.00 0.00 0.00 61 1009.2
20260904074558 58 242 3.0 5.0 0.00 0.00 0.00 57 1009.2
20260904073104 58 297 2.0 7.0 0.00 0.00 0.00 58 1009.1
20260904071556 59 264 6.0 9.0 0.00 0.00 0.00 58 1009.1
20260904070056 59 277 4.0 7.0 0.00 0.00 0.00 58 1009.1
20260904064603 60 260 6.0 9.0 0.00 0.00 0.00 56 1009.0
20260904063108 60 281 4.0 7.0 0.00 0.00 0.00 56 1009.0
20260904061553 60 304 3.0 7.0 0.00 0.00 0.00 56 1008.7
20260904060109 60 267 5.0 7.0 0.00 0.00 0.00 55 1008.7
20260904054542 60 277 6.0 8.0 0.00 0.00 0.00 55 1008.7
20260904053036 61 266 5.0 9.0 0.00 0.00 0.00 52 1008.7
20260904051518 61 276 5.0 8.0 0.00 0.00 0.00 53 1008.7
20260904050030 61 274 2.0 6.0 0.00 0.00 0.00 53 1008.7
20260904044601 61 280 5.0 7.0 0.00 0.00 0.00 52 1008.5
20260904043106 62 284 2.0 4.0 0.00 0.00 0.00 51 1008.2
20260904043001 62 278 2.0 4.0 0.00 0.00 0.00 51 1008.2
20260904041541 62 276 3.0 5.0 0.00 0.00 0.00 50 1008.0
20260904040042 63 224 4.0 5.0 0.00 0.00 0.00 49 1007.9
20260904034522 63 291 1.0 3.0 0.00 0.00 0.00 49 1008.0
20260904033021 63 250 1.0 5.0 0.00 0.00 0.00 49 1008.0
20260904031504 63 307 1.0 3.0 0.00 0.00 0.00 51 1007.8
20260904030003 65 211 3.0 6.0 0.00 0.00 0.00 46 1007.5
20260904024609 65 263 5.0 6.0 0.00 0.00 0.00 47 1007.2
20260904023046 66 269 0.0 0.0 0.00 0.00 0.00 46 1007.1
20260904021552 66 143 0.0 0.0 0.00 0.00 0.00 45 1007.2
20260904020026 67 132 0.0 2.0 0.00 0.00 0.00 45 1007.4
20260904014525 68 224 2.0 4.0 0.00 0.00 0.00 41 1007.4
20260904013007 68 190 2.0 5.0 0.00 0.00 0.00 40 1007.4
20260904011505 68 191 5.0 9.0 0.00 0.00 0.00 39 1007.4
20260904010049 69 197 8.0 12.0 0.00 0.00 0.00 38 1007.5
20260904004547 69 203 9.0 15.0 0.00 0.00 0.00 38 1007.5
20260904003030 69 200 12.0 19.0 0.00 0.00 0.00 36 1007.6
20260904001547 70 197 13.0 19.0 0.00 0.00 0.00 35 1007.6
20260904000010 70 204 14.0 18.0 0.00 0.00 0.00 34 1007.6
20260903234509 71 208 11.0 17.0 0.00 0.00 0.00 34 1007.6
20260903233051 71 222 13.0 19.0 0.00 0.00 0.00 34 1007.6
20260903231601 71 198 10.0 16.0 0.00 0.00 0.00 35 1007.7
20260903230031 72 250 11.0 19.0 0.00 0.00 0.00 34 1007.8
20260903224529 72 203 15.0 23.0 0.00 0.00 0.00 34 1008.1
20260903223005 71 236 14.0 23.0 0.00 0.00 0.00 35 1008.2
20260903221503 71 211 8.0 22.0 0.00 0.00 0.00 37 1008.2
20260903220042 71 204 7.0 17.0 0.00 0.00 0.00 38 1008.2
20260903214541 70 166 3.0 15.0 0.00 0.00 0.00 40 1008.5
20260903213035 70 219 13.0 20.0 0.00 0.00 0.00 38 1008.7
20260903211523 70 215 11.0 20.0 0.00 0.00 0.00 37 1008.8
20260903210020 69 215 11.0 20.0 0.00 0.00 0.00 39 1008.9
20260903204517 68 145 8.0 18.0 0.00 0.00 0.00 39 1009.1
20260903203014 68 153 6.0 16.0 0.00 0.00 0.00 44 1009.3
20260903201613 67 210 9.0 19.0 0.00 0.00 0.00 45 1009.5
20260903200015 67 188 8.0 19.0 0.00 0.00 0.00 44 1009.7
20260903194514 67 221 12.0 19.0 0.00 0.00 0.00 47 1009.7
20260903193017 67 266 10.0 17.0 0.00 0.00 0.00 50 1009.8
20260903191611 66 204 11.0 20.0 0.00 0.00 0.00 53 1009.9
20260903190012 66 197 12.0 19.0 0.00 0.00 0.00 54 1010.1
20260903184508 66 191 15.0 22.0 0.00 0.00 0.00 51 1010.1